Погода в Антипаюте

Погода в Антипаюте : погода сейчас, прогноз погоды и архив. Всё, что Вы хотите узнать о погоде в Антипаюте!

Хотите узнать прогноз погоды в Антипаюте? Тогда Вам сюда: Погода в Антипаюте

Поиск расширенной информации на нашем сайте:

Другие новости

Новости СМИ2

Главная страница сайта

Новости сайта

03.07.2017

Напоминаем, что на нашем специализированном сайте Метеоцентр.Азия вы можете получить высокодетализированные автоматические прогнозы погоды по пунктам России, СНГ и мира в авиационном формате (включающие направление и скорость ветра, видимость, явления погоды, количество и форму облачности, нижнюю и верхнюю границу облачности).


Погода в Антипаюте - сегодня

Время (UTC), дата Ветер
(°,м/с) 
Видим.   Явления Облачность Т
(°С)
Тd
(°С)
f(%) Тe
(°С)
Pmin
(гПа)
dP
(гПа)
Po
(мм)
O2
(г/м3)
Тmin Tmax R s Состояние
почвы
09 16.06.18 020 (С) 20000 м    ясно 
+21.6 +13.5 60 +28  1011.2  0.3  758  280           
12 16.06.18 360 (С) 20000 м    ясно 
+22.3 +14.2 60 +29  1011.2  758  280           
18 16.06.18 020 (С) 20000 м    3/3 900 м 
[Cu med, cong]
+11.3 +9.5 89 +10  1011.1  -0.2  758  292           
21 16.06.18 020 (С) 20000 м    ясно 
+8.4 +7.2 92 +7  1011.4  0.3  758  295           
00 17.06.18 020 (С) 20000 м    ясно 
+9.6 +7.1 84 +8  1011.7  0.3  758  294           
06 17.06.18 030 (СВ) 20000 м    ясно 
+20 +12.4 62 +24  1011.7  -0.3  758  282           
09 17.06.18 020 (С) 20000 м    ясно 
+22.3 +14.6 62 +30  1011.3  -0.4  758  279           
12 17.06.18 070 (В) 20000 м    ясно 
+22.4 +14.8 62 +30  1010.8  -0.5  758  279           
15 17.06.18 020 (С) 20000 м    ясно 
+19.8 +14.6 72 +28  1010.6  -0.2  758  282    +22.8       
18 17.06.18 010 (С) 20000 м    4/3 800 м верхняя 
[Cu hum|Ci fib]
+13.4 +10.9 85 +14  1010.2  -0.4  757  289           
00 18.06.18 020 (С) 6{11}  20000 м    ясно 
+11.5 +8.6 82 +10  1008.4  -0.5  756  291           
06 18.06.18 050 (СВ) 20000 м    8/0 средняя 
[Ac As]
+13.3 +10.6 84 +15  1008.6  -0.2  756  289           
09 18.06.18 220 (ЮЗ) 20000 м    8/0 средняя 
[Ac As]
+15 +11.2 78 +19  1007.9  -0.7  756  287           
12 18.06.18 300 (СЗ) 20000 м    9/5 480 м средняя 
[Sc|Ac As]
+16.4 +12.9 80 +22  1007.4  -0.5  755  285           
18 18.06.18 340 (С) 20000 м  {дождь}  10/0 средняя 
[As trans]
+11.6 +10.5 93 +13  1005.9  -0.7  754  290           
03 19.06.18 030 (СВ) 20000 м  {дождь}  10/10 300 м 
[Ns]
+12.6 +11.7 94 +15  1005.6  -0.5  754  288  +8.7    0.6    влажная 
09 19.06.18 020 (С) 20000 м    9/8 900 м кучево-дожд., средняя 
[Cb cap|Ac trans]
+19.4 +13.4 68 +26  1004.7  -0.5  753  281           
12 19.06.18 030 (СВ) 20000 м    10/4 750 м верхняя 
[Sc|Cs]
+18.5 +13.1 71 +23  1003.8  -0.9  753  281           
03 20.06.18 080 (В) 6-10{14}  20000 м    8/0 средняя, верхняя 
[Ac trans|Ci fib]
+15.9 +12.3 79 +19  997.5  -0.8  748  282  +11.6    0.7    влажная 
06 20.06.18 060 (СВ) 9-14{14}  20000 м    8/0 средняя, верхняя 
[Ac trans|Ci fib]
+17.7 +12.2 70 +21  997.1  -0.4  748  281           
09 20.06.18 050 (СВ) 7-11{14}  20000 м    6/0 средняя, верхняя 
[Ac cast|Ci fib]
+18.5 +12.7 69 +23  996.7  -0.4  747  280           
21 20.06.18 050 (СВ) 6{13}  20000 м    3/3 600 м 
[Sc]
+12.3 +9.3 82 +11  993.6  -0.3  745  286           
03 21.06.18 070 (В) 6{12}  20000 м    10/10 600 м 
[Sc]
+13.6 +10.5 82 +15  994.3  0.9  745  284  +12.2        влажная 
06 21.06.18 050 (СВ) 20000 м    8/0 средняя, верхняя 
[Ac cast|Ci fib]
+18.4 +12.9 70 +24  993.8  -0.5  745  279           
09 21.06.18 060 (СВ) 7{10}  20000 м    6/0 верхняя 
[Ci]
+19 +13 68 +25  994.3  0.5  745  278           
Время (UTC), дата Ветер
(°,м/с) 
Видим.   Явления Облачность Т
(°С)
Тd
(°С)
f(%) Тe
(°С)
Pmin
(гПа)
dP
(гПа)
Po
(мм)
O2
(г/м3)
Тmin Tmax R s Состояние
почвы

Для получения пояснительной информации подведите курсор к названию столбца.

ПОГОДА в Антипаюте - архив

Всё, что Вы хотите узнать о погоде в Антипаюте - удобно и подробно!

Выберите нужную дату (начиная с 1 января 2015* года) и нажмите кнопку "Найти".
Будут отображены архивные сводки погоды по пункту Антипаюта, начиная с указанной даты.


Отображать данные в формате CSV (для использования в таблицах Excel)


Внимание! Наш архив погоды предназначен исключительно для личного некоммерческого использования в познавательных целях. Если Вам необходимы официальные справки о состоянии погоды (для производственных, юридических, коммерческих и т.п. целей), обращайтесь в органы Росгидромета.

*Примечание: данная дата относится к архиву по метеостанциям СССР (Россия, СНГ, Балтия).
Архив по метеостанциям Зарубежной Европы и Азии (кроме Китая) хранится 10 дней, по другим регионам земного шара (Китай, Африка, Америка, Австралия, Океания) - 1 день.

Антипаюта - район местоположения метеостанции


Название, широта, долгота, высота метеостанции:
Антипаюта 69.2°ш. 77°д. 4 м над ур. моря [Российская Федерация]

Дополнительная информация

В oтличие oт бoльшинства пoгoдных сайтoв мы публикуем пoдрoбную метеoинфoрмацию в детальнoм прoфессиoнальнoм фoрмате.

Характеристики температуры и влажнoсти вoздуха измеряются на высoте 2 м в тени вдали oт зданий и деревьев.
Скoрoсть ветра измеряется на высoте 10 м (на урoвне рoста челoвека скoрoсть ветра ниже в 1.5-2 раза). Если метеoстанция нахoдится в гoрoде или в лесу, тo скoрoсть ветра занижена на 2-4 м/с пo сравнению с oткрытым местoм. Скoрoсть ветра над акватoриями крупных рек и oзёр, а также на вершинах хoлмoв на 2-5 м/с выше, чем в oбычных услoвиях.
Атмoсфернoе давление в разных тoчках местнoсти мoжет значительнo oтличаться oт давления на метеoстанции, в зависимoсти oт услoвий рельефа (при пoдъёме на 10 м давление пoнижается примернo на 1 мм рт.ст.).